Regional Weather Roundup
Issued by NWS Green Bay, WI

Home | Current Version | Previous Version | Text Only | Print | Product List | Glossary On
Versions: 1 2 3 4 5 6 7 8 9 10 11 12 13 14 15 16 17 18 19 20 21 22 23 24 25 26 27 28 29 30 31 32 33 34 35 36 37 38 39 40 41 42 43 44 45 46 47 48 49 50
000
ASUS43 KGRB 200559
RWRGRB

NORTH-CENTRAL AND NORTHEAST WISCONSIN REGIONAL WEATHER ROUNDUP
NATIONAL WEATHER SERVICE GREEN BAY WI
100 AM CDT SAT SEP 20 2014

WIZ005-009-010>012-018-019-200700-
NORTH CENTRAL WISCONSIN

CITY           SKY/WX    TMP DP  RH WIND       PRES   REMARKS
IRONWOOD       MOCLDY    66  61  82 SW10      29.62R
MANITOWISH WTR NOT AVBL
ARBOR VITAE    NOT AVBL
EAGLE RIVER    NOT AVBL
LAND O LAKES   NOT AVBL
RHINELANDER    MOCLDY    62  56  80 SW10      29.72F
PHILLIPS       NOT AVBL
ANTIGO         NOT AVBL
TOMAHAWK       NOT AVBL
MERRILL        NOT AVBL
$$

WIZ013-073-200700-
NORTHEAST WISCONSIN

CITY           SKY/WX    TMP DP  RH WIND       PRES   REMARKS
IRON MOUNTAIN  CLOUDY    64  53  67 S7        29.69F
MARINETTE      CLOUDY    63  54  72 SW12G18   29.71F
$$

WIZ017-030-035>037-045-200700-
CENTRAL WISCONSIN

CITY           SKY/WX    TMP DP  RH WIND       PRES   REMARKS
MEDFORD        NOT AVBL
WAUSAU         CLOUDY    63  56  78 SW15      29.73S
MOSINEE        CLOUDY    61  57  88 S16       29.76S
MARSHFIELD     MOCLDY    65  57  75 SW10      29.75S
WISC RAPIDS    LGT RAIN  64  58  80 SW8       29.78R
STEVENS POINT  NOT AVBL
WAUPACA        NOT AVBL
SHAWANO        CLOUDY    64  55  70 SW7       29.75F
CLINTONVILLE   CLOUDY    63  52  67 SW9       29.77R
$$

WIZ038-039-048-051-200700-
FOX VALLEY

CITY           SKY/WX    TMP DP  RH WIND       PRES   REMARKS
NWS GREEN BAY  CLOUDY    65  54  67 S13G26    29.76F
APPLETON       NOT AVBL
OSHKOSH        PTCLDY    64  54  69 SW15G24   29.80F
FOND DU LAC    PTCLDY    64  52  64 S14G23    29.82F
$$

WIZ022-050-052-200700-
EAST CENTRAL WISCONSIN

CITY           SKY/WX    TMP DP  RH WIND       PRES   REMARKS
STURGEON BAY   CLOUDY    63  52  67 S12       29.76F
MANITOWOC      NOT AVBL
SHEBOYGAN      PTCLDY    61  49  64 S8        29.83F
$$

LMZ563-521-522-541>543-200700-
LAKESHORE

STATION/POSITION TIME  TEMP    WIND        PRES    VSBY  WAVE
                       AIR SEA DIR/SP/G                  HT/PER
                 (UTC) (F)     (DEG/KT/KT) (MB)    (MI)  (FT/S)
SHEBOYGAN LKSHOR 0500   61 55  190/ 13/ 14 1010.9F
KEWAUNEE LKSHORE 0500                      1009.1F
NORTHPORT PIER   0500   62     160/  9/ 16 1008.1F
N MID LAKE BUOY  0500   62 58  210/ 25/ 29 1008.1F         9/ 8
S GREEN BAY BUOY 0500   64     VRB 17/ 21  1009.2F
SISTER BAY LKSHO 0500          180/ 18/ 24   N/A
CHAMBERS ISLAND  0500   63     170/  8/ 16 1007.1F
MENOMINEE LKSHOR 0500                      1008.5F
$$


USA.gov is the U.S. government's official web portal to all federal, state and local government web resources and services.